Back to catalog

COSMOS 2251 DEB

AliveLEO
NORAD 35989·DEBRIS·🇷🇺 Russia

Launched Jun 16, 1993 from Plesetsk Cosmodrome

Loading…

Next Passes (next 24 hours)

TLE

AgingSource: Space-Track

Epoch: Sep 12, 2026, 08:44 UTC

1 35989U 93036AWF 26255.36408027  .00000251  00000-0  92522-4 0  9997
2 35989  74.0377 140.5444 0022064 161.4635 198.7327 14.37350231911104

Track COSMOS 2251 DEB in real time with AllMySat

Download on the App Store